,,,PA_Meas_PMT16A,,PR_Meas_QMR101_102,,RH_Meas_QMH101,,SR_Meas_QMS101,,TA_Meas_QMH101,,GenWind,,GenWind,
date,time,status,PA,status,PR,status,RH,status,SR,status,TA,status,DirAvg,status,SpdAvg,
2009-01-12, 00:00:04,VALID,1004.67,VALID,0,VALID,85.9317,VALID,0.100563,VALID,25.5532,VALID,342,VALID,0.586719,
2009-01-12, 00:01:04,VALID,1004.66,VALID,0,VALID,85.9622,VALID,0.100563,VALID,25.5318,VALID,341,VALID,0.551172,
2009-01-12, 00:02:04,VALID,1004.62,VALID,0,VALID,85.9851,VALID,0.100563,VALID,25.5123,VALID,354,VALID,0.880078,
2009-01-12, 00:03:04,VALID,1004.61,VALID,0,VALID,85.9546,VALID,0.100563,VALID,25.4909,VALID,356,VALID,0.490625,
2009-01-12, 00:04:04,VALID,1004.58,VALID,0,VALID,86.008,VALID,0.100563,VALID,25.5318,VALID,348,VALID,0.290625,
2009-01-12, 00:05:04,VALID,1004.57,VALID,0,VALID,86.0538,VALID,0.100563,VALID,25.5123,VALID,348,VALID,0.269922,
2009-01-12, 00:06:04,VALID,1004.55,VALID,0,VALID,86.0385,VALID,0.100563,VALID,25.4928,VALID,353,VALID,0.757422,
2009-01-12, 00:07:04,VALID,1004.53,VALID,0,VALID,86.0995,VALID,0.100563,VALID,25.4734,VALID,354,VALID,0.642969,
2009-01-12, 00:08:04,VALID,1004.49,VALID,0,VALID,86.2369,VALID,0.100563,VALID,25.4539,VALID,356,VALID,0.287109,
2009-01-12, 00:09:04,VALID,1004.5,VALID,0,VALID,86.3589,VALID,0,VALID,25.4149,VALID,349,VALID,0.657812,
2009-01-12, 00:10:04,VALID,1004.48,VALID,0,VALID,86.3666,VALID,0,VALID,25.4363,VALID,344,VALID,0.535547,
2009-01-12, 00:11:04,VALID,1004.51,VALID,0,VALID,86.3666,VALID,0,VALID,25.3955,VALID,351,VALID,0.584766,
2009-01-12, 00:12:04,VALID,1004.49,VALID,0,VALID,86.5191,VALID,0,VALID,25.3779,VALID,352,VALID,0.598828,
2009-01-12, 00:13:04,VALID,1004.51,VALID,0,VALID,86.687,VALID,0,VALID,25.337,VALID,356,VALID,0.619531,
2009-01-12, 00:14:04,VALID,1004.49,VALID,0,VALID,86.7785,VALID,0,VALID,25.3195,VALID,340,VALID,0.548828,
2009-01-12, 00:15:04,VALID,1004.48,VALID,0,VALID,86.7709,VALID,0,VALID,25.3195,VALID,333,VALID,0.585156,
2009-01-12, 00:16:04,VALID,1004.44,VALID,0,VALID,86.7633,VALID,0,VALID,25.3,VALID,337,VALID,0.457422,
2009-01-12, 00:17:04,VALID,1004.44,VALID,0,VALID,86.8929,VALID,0,VALID,25.3,VALID,349,VALID,0.595703,
2009-01-12, 00:18:04,VALID,1004.46,VALID,0,VALID,86.9311,VALID,0,VALID,25.3,VALID,348,VALID,0.109766,
2009-01-12, 00:19:04,VALID,1004.42,VALID,0,VALID,87.015,VALID,0,VALID,25.2806,VALID,348,VALID,0.277734,
2009-01-12, 00:20:04,VALID,1004.41,VALID,0,VALID,86.9464,VALID,0,VALID,25.2806,VALID,349,VALID,0.597656,
2009-01-12, 00:21:04,VALID,1004.41,VALID,0,VALID,86.9235,VALID,0,VALID,25.2806,VALID,352,VALID,0.369141,
2009-01-12, 00:22:04,VALID,1004.4,VALID,0,VALID,86.9311,VALID,0,VALID,25.3,VALID,350,VALID,1.00273,
2009-01-12, 00:23:04,VALID,1004.38,VALID,0,VALID,86.9158,VALID,0,VALID,25.3195,VALID,350,VALID,0.382031,
2009-01-12, 00:24:04,VALID,1004.39,VALID,0,VALID,86.7022,VALID,0,VALID,25.339,VALID,343,VALID,0.549219,
2009-01-12, 00:25:04,VALID,1004.39,VALID,0,VALID,86.6336,VALID,0,VALID,25.3584,VALID,344,VALID,0.851172,
2009-01-12, 00:26:04,VALID,1004.38,VALID,0,VALID,86.5649,VALID,0,VALID,25.3779,VALID,346,VALID,0.447266,
2009-01-12, 00:27:04,VALID,1004.38,VALID,0,VALID,86.4657,VALID,0,VALID,25.4169,VALID,353,VALID,0.384375,
2009-01-12, 00:28:04,VALID,1004.37,VALID,0,VALID,86.4276,VALID,0,VALID,25.4169,VALID,353,VALID,0.151562,
2009-01-12, 00:29:04,VALID,1004.36,VALID,0,VALID,86.3818,VALID,0,VALID,25.4363,VALID,349,VALID,0.383594,
2009-01-12, 00:30:04,VALID,1004.38,VALID,0,VALID,86.2979,VALID,0,VALID,25.4363,VALID,352,VALID,0.651172,
2009-01-12, 00:31:04,VALID,1004.38,VALID,0,VALID,86.275,VALID,0,VALID,25.4363,VALID,350,VALID,0.642969,
2009-01-12, 00:32:04,VALID,1004.35,VALID,0,VALID,86.1835,VALID,0,VALID,25.4558,VALID,348,VALID,0.377734,
2009-01-12, 00:33:04,VALID,1004.32,VALID,0,VALID,86.1148,VALID,0,VALID,25.4753,VALID,333,VALID,0.544922,
2009-01-12, 00:34:04,VALID,1004.33,VALID,0,VALID,86.0004,VALID,0,VALID,25.4948,VALID,343,VALID,0.367188,
2009-01-12, 00:35:04,VALID,1004.33,VALID,0,VALID,86.0843,VALID,0,VALID,25.5142,VALID,351,VALID,0.551172,
2009-01-12, 00:36:04,VALID,1004.3,VALID,0,VALID,86.0385,VALID,0,VALID,25.4948,VALID,349,VALID,0.51875,
2009-01-12, 00:37:04,VALID,1004.31,VALID,0,VALID,86.0843,VALID,0,VALID,25.4948,VALID,342,VALID,1.01641,
2009-01-12, 00:38:04,VALID,1004.29,VALID,0,VALID,85.9622,VALID,0,VALID,25.5142,VALID,349,VALID,0.705078,
2009-01-12, 00:39:04,VALID,1004.29,VALID,0,VALID,85.9165,VALID,0,VALID,25.5142,VALID,5,VALID,0.512109,
2009-01-12, 00:40:04,VALID,1004.26,VALID,0,VALID,85.9165,VALID,0,VALID,25.5142,VALID,355,VALID,0.555469,
2009-01-12, 00:41:04,VALID,1004.3,VALID,0,VALID,85.8859,VALID,0,VALID,25.4948,VALID,354,VALID,0.3625,
2009-01-12, 00:42:04,VALID,1004.31,VALID,0,VALID,86.0843,VALID,0,VALID,25.4948,VALID,353,VALID,0.480078,
2009-01-12, 00:43:04,VALID,1004.29,VALID,0,VALID,86.0995,VALID,0,VALID,25.4948,VALID,351,VALID,0.296484,
2009-01-12, 00:44:04,VALID,1004.26,VALID,0,VALID,86.1682,VALID,0,VALID,25.4772,VALID,351,VALID,0.215234,
2009-01-12, 00:45:04,VALID,1004.28,VALID,0,VALID,86.3132,VALID,0,VALID,25.3974,VALID,351,VALID,0.285156,
2009-01-12, 00:46:04,VALID,1004.25,VALID,0,VALID,86.4886,VALID,0,VALID,25.337,VALID,351,VALID,0.269922,
2009-01-12, 00:47:04,VALID,1004.26,VALID,0,VALID,86.6641,VALID,0,VALID,25.3195,VALID,351,VALID,0.154297,
2009-01-12, 00:48:04,VALID,1004.23,VALID,0,VALID,86.9006,VALID,0,VALID,25.2611,VALID,351,VALID,0.0382813,
2009-01-12, 00:49:04,VALID,1004.21,VALID,0,VALID,87.1066,VALID,0,VALID,25.2416,VALID,351,VALID,0.04375,
2009-01-12, 00:50:04,VALID,1004.22,VALID,0,VALID,87.2362,VALID,0,VALID,25.2027,VALID,351,VALID,0,
2009-01-12, 00:51:04,VALID,1004.21,VALID,0,VALID,87.3736,VALID,0,VALID,25.1813,VALID,331,VALID,0.176563,
2009-01-12, 00:52:04,VALID,1004.16,VALID,0,VALID,87.427,VALID,0,VALID,25.1813,VALID,331,VALID,0.258594,
2009-01-12, 00:53:04,VALID,1004.14,VALID,0,VALID,87.4117,VALID,0,VALID,25.2007,VALID,331,VALID,0.375391,
2009-01-12, 00:54:04,VALID,1004.13,VALID,0,VALID,87.4041,VALID,0,VALID,25.2221,VALID,331,VALID,0.0570313,
2009-01-12, 00:55:04,VALID,1004.13,VALID,0,VALID,87.4727,VALID,0,VALID,25.224,VALID,331,VALID,0,
2009-01-12, 00:56:04,VALID,1004.13,VALID,0,VALID,87.6635,VALID,0,VALID,25.1832,VALID,331,VALID,0.248437,
2009-01-12, 00:57:04,VALID,1004.15,VALID,0,VALID,87.6558,VALID,0,VALID,25.1248,VALID,331,VALID,0.253125,
2009-01-12, 00:58:04,VALID,1004.13,VALID,0,VALID,87.9,VALID,0,VALID,25.0663,VALID,331,VALID,0.00195313,
2009-01-12, 00:59:04,VALID,1004.09,VALID,0,VALID,88.1212,VALID,0,VALID,25.0079,VALID,331,VALID,0.0792969,
2009-01-12, 01:00:04,VALID,1004.11,VALID,0,VALID,88.4492,VALID,0,VALID,24.969,VALID,331,VALID,0.25625,
2009-01-12, 01:01:04,VALID,1004.08,VALID,0,VALID,88.6171,VALID,0,VALID,24.9495,VALID,331,VALID,0.246875,
2009-01-12, 01:02:04,VALID,1004.08,VALID,0,VALID,88.7391,VALID,0,VALID,24.93,VALID,331,VALID,0.183984,
2009-01-12, 01:03:04,VALID,1004.06,VALID,0,VALID,88.8765,VALID,0,VALID,24.8911,VALID,331,VALID,0.126953,
2009-01-12, 01:04:04,VALID,1004.02,VALID,0,VALID,89.0443,VALID,0,VALID,24.8522,VALID,331,VALID,0,
2009-01-12, 01:05:04,VALID,1004.02,VALID,0,VALID,89.2579,VALID,0,VALID,24.8132,VALID,331,VALID,0,
2009-01-12, 01:06:04,VALID,1004,VALID,0,VALID,89.4181,VALID,0,VALID,24.7548,VALID,331,VALID,0.0394531,
2009-01-12, 01:07:04,VALID,1003.97,VALID,0,VALID,89.6393,VALID,0,VALID,24.7353,VALID,332,VALID,0.353516,
2009-01-12, 01:08:04,VALID,1003.97,VALID,0,VALID,89.7614,VALID,0,VALID,24.6964,VALID,332,VALID,0.314063,
2009-01-12, 01:09:04,VALID,1003.95,VALID,0,VALID,89.9903,VALID,0,VALID,24.6574,VALID,332,VALID,0.100391,
2009-01-12, 01:10:04,VALID,1003.96,VALID,0,VALID,90.1123,VALID,0,VALID,24.6166,VALID,332,VALID,0.301172,
2009-01-12, 01:11:04,VALID,1003.95,VALID,0,VALID,90.2191,VALID,0,VALID,24.638,VALID,332,VALID,0.376953,
2009-01-12, 01:12:04,VALID,1003.92,VALID,0,VALID,90.2573,VALID,0,VALID,24.599,VALID,332,VALID,0.2125,
2009-01-12, 01:13:04,VALID,1003.9,VALID,0,VALID,90.3412,VALID,0,VALID,24.5796,VALID,15,VALID,0.438281,
2009-01-12, 01:14:04,VALID,1003.92,VALID,0,VALID,90.5396,VALID,0,VALID,24.5796,VALID,17,VALID,0.162109,
2009-01-12, 01:15:04,VALID,1003.88,VALID,0,VALID,90.6082,VALID,0,VALID,24.5601,VALID,17,VALID,0.0640625,
2009-01-12, 01:16:04,VALID,1003.87,VALID,0,VALID,90.6006,VALID,0,VALID,24.5582,VALID,17,VALID,0.309375,
2009-01-12, 01:17:04,VALID,1003.91,VALID,0,VALID,90.6006,VALID,0,VALID,24.5601,VALID,17,VALID,0.0328125,
2009-01-12, 01:18:04,VALID,1003.91,VALID,0,VALID,90.6464,VALID,0,VALID,24.5406,VALID,17,VALID,0.289453,
2009-01-12, 01:19:04,VALID,1003.88,VALID,0,VALID,90.6616,VALID,0,VALID,24.5017,VALID,17,VALID,0.38125,
2009-01-12, 01:20:04,VALID,1003.86,VALID,0,VALID,90.7532,VALID,0,VALID,24.4628,VALID,17,VALID,0.00585938,
2009-01-12, 01:21:04,VALID,1003.86,VALID,0,VALID,90.8447,VALID,0,VALID,24.4238,VALID,17,VALID,0.346875,
2009-01-12, 01:22:04,VALID,1003.85,VALID,0,VALID,90.9363,VALID,0,VALID,24.4238,VALID,17,VALID,0.249219,
2009-01-12, 01:23:04,VALID,1003.83,VALID,0,VALID,91.0583,VALID,0,VALID,24.3849,VALID,17,VALID,0.213672,
2009-01-12, 01:24:04,VALID,1003.82,VALID,0,VALID,91.0888,VALID,0,VALID,24.3654,VALID,17,VALID,0.357422,
2009-01-12, 01:25:04,VALID,1003.82,VALID,0,VALID,91.1117,VALID,0,VALID,24.3459,VALID,17,VALID,0.29375,
2009-01-12, 01:26:04,VALID,1003.83,VALID,0,VALID,91.2338,VALID,0,VALID,24.2875,VALID,15,VALID,0.394922,
2009-01-12, 01:27:04,VALID,1003.8,VALID,0,VALID,91.4703,VALID,0,VALID,24.2875,VALID,13,VALID,0.344141,
2009-01-12, 01:28:04,VALID,1003.81,VALID,0,VALID,91.6457,VALID,0,VALID,24.3265,VALID,13,VALID,0.210156,
2009-01-12, 01:29:04,VALID,1003.8,VALID,0,VALID,91.6763,VALID,0,VALID,24.3654,VALID,357,VALID,0.384375,
2009-01-12, 01:30:04,VALID,1003.78,VALID,0,VALID,91.5237,VALID,0,VALID,24.383,VALID,357,VALID,0,
2009-01-12, 01:31:04,VALID,1003.78,VALID,0,VALID,91.5161,VALID,0,VALID,24.422,VALID,293,VALID,0.559766,
2009-01-12, 01:32:04,VALID,1003.76,VALID,0,VALID,91.3482,VALID,0,VALID,24.4609,VALID,273,VALID,0.0558594,
2009-01-12, 01:33:04,VALID,1003.77,VALID,0,VALID,91.3864,VALID,0,VALID,24.5212,VALID,287,VALID,0.615625,
2009-01-12, 01:34:04,VALID,1003.74,VALID,0,VALID,91.2033,VALID,0,VALID,24.638,VALID,284,VALID,0.504297,
2009-01-12, 01:35:04,VALID,1003.74,VALID,0,VALID,90.6464,VALID,0,VALID,24.7548,VALID,284,VALID,0.0117188,
2009-01-12, 01:36:04,VALID,1003.73,VALID,0,VALID,90.2573,VALID,0,VALID,24.8132,VALID,286,VALID,0,
2009-01-12, 01:37:04,VALID,1003.69,VALID,0,VALID,90.0437,VALID,0,VALID,24.8911,VALID,286,VALID,0,
2009-01-12, 01:38:04,VALID,1003.66,VALID,0,VALID,89.708,VALID,0,VALID,24.969,VALID,337,VALID,0.485938,
2009-01-12, 01:39:04,VALID,1003.64,VALID,0,VALID,89.2579,VALID,0,VALID,25.0255,VALID,337,VALID,0,
2009-01-12, 01:40:04,VALID,1003.62,VALID,0,VALID,88.8307,VALID,0,VALID,25.0663,VALID,337,VALID,0,
2009-01-12, 01:41:04,VALID,1003.58,VALID,0,VALID,88.6781,VALID,0,VALID,25.1053,VALID,293,VALID,0.452734,
2009-01-12, 01:42:04,VALID,1003.6,VALID,0,VALID,88.495,VALID,0,VALID,25.1053,VALID,293,VALID,0.328516,
2009-01-12, 01:43:04,VALID,1003.58,VALID,0,VALID,88.3882,VALID,0,VALID,25.1053,VALID,293,VALID,0.146094,
2009-01-12, 01:44:04,VALID,1003.57,VALID,0,VALID,88.289,VALID,0,VALID,25.1053,VALID,293,VALID,0,
2009-01-12, 01:45:04,VALID,1003.55,VALID,0,VALID,88.3653,VALID,0,VALID,25.0839,VALID,292,VALID,0.144922,
2009-01-12, 01:46:04,VALID,1003.52,VALID,0,VALID,88.3272,VALID,0,VALID,25.1248,VALID,289,VALID,0.0105469,
2009-01-12, 01:47:04,VALID,1003.48,VALID,0,VALID,88.2967,VALID,0,VALID,25.1034,VALID,289,VALID,0,
2009-01-12, 01:48:04,VALID,1003.44,VALID,0,VALID,88.2356,VALID,0,VALID,25.1442,VALID,350,VALID,0,
2009-01-12, 01:49:04,VALID,1003.44,VALID,0,VALID,88.0525,VALID,0,VALID,25.1442,VALID,350,VALID,0.422656,
2009-01-12, 01:50:04,VALID,1003.38,VALID,0,VALID,87.427,VALID,0,VALID,25.0469,VALID,355,VALID,0.417578,
2009-01-12, 01:51:04,VALID,1003.37,VALID,0,VALID,87.7169,VALID,0.100563,VALID,24.9087,VALID,355,VALID,0.166406,
2009-01-12, 01:52:04,VALID,1003.37,VALID,0,VALID,88.0983,VALID,0,VALID,24.7919,VALID,355,VALID,0.515234,
2009-01-12, 01:53:04,VALID,1003.38,VALID,0,VALID,88.3882,VALID,0,VALID,24.675,VALID,355,VALID,0.551953,
2009-01-12, 01:54:04,VALID,1003.4,VALID,0,VALID,88.6247,VALID,0.100563,VALID,24.5796,VALID,355,VALID,0.416797,
2009-01-12, 01:55:04,VALID,1003.35,VALID,0,VALID,89.0061,VALID,0,VALID,24.4414,VALID,355,VALID,0.450391,
2009-01-12, 01:56:04,VALID,1003.35,VALID,0,VALID,89.5325,VALID,0,VALID,24.3441,VALID,355,VALID,0.441797,
2009-01-12, 01:57:04,VALID,1003.36,VALID,0,VALID,90.0971,VALID,0.100563,VALID,24.2857,VALID,354,VALID,0.302344,
2009-01-12, 01:58:04,VALID,1003.33,VALID,0,VALID,90.654,VALID,0,VALID,24.2662,VALID,354,VALID,0.319141,
2009-01-12, 01:59:04,VALID,1003.32,VALID,0,VALID,90.9134,VALID,0,VALID,24.2662,VALID,354,VALID,0.251563,
2009-01-12, 02:00:04,VALID,1003.3,VALID,0,VALID,91.0965,VALID,0,VALID,24.2468,VALID,354,VALID,0.276563,
2009-01-12, 02:01:04,VALID,1003.25,VALID,0,VALID,91.1956,VALID,0.100563,VALID,24.2273,VALID,354,VALID,0.126172,
2009-01-12, 02:02:04,VALID,1003.23,VALID,0,VALID,91.2948,VALID,0,VALID,24.2468,VALID,354,VALID,0,
2009-01-12, 02:03:04,VALID,1003.24,VALID,0,VALID,91.3406,VALID,0.100563,VALID,24.2486,VALID,354,VALID,0,
2009-01-12, 02:04:04,VALID,1003.21,VALID,0,VALID,91.3864,VALID,0,VALID,24.2078,VALID,354,VALID,0,
2009-01-12, 02:05:04,VALID,1003.21,VALID,0,VALID,91.4855,VALID,0,VALID,24.1884,VALID,354,VALID,0,
2009-01-12, 02:06:04,VALID,1003.21,VALID,0,VALID,91.5695,VALID,0,VALID,24.2097,VALID,354,VALID,0,
2009-01-12, 02:07:04,VALID,1003.21,VALID,0,VALID,91.722,VALID,0,VALID,24.1902,VALID,354,VALID,0,
2009-01-12, 02:08:04,VALID,1003.21,VALID,0,VALID,91.7983,VALID,0,VALID,24.1902,VALID,354,VALID,0,
2009-01-12, 02:09:04,VALID,1003.21,VALID,0,VALID,91.9128,VALID,0,VALID,24.1707,VALID,354,VALID,0.258203,
2009-01-12, 02:10:04,VALID,1003.21,VALID,0,VALID,92.0806,VALID,0,VALID,24.1689,VALID,354,VALID,0.229297,
2009-01-12, 02:11:04,VALID,1003.22,VALID,0,VALID,92.1798,VALID,0,VALID,24.1494,VALID,354,VALID,0.175,
2009-01-12, 02:12:04,VALID,1003.25,VALID,0,VALID,92.2484,VALID,0,VALID,24.1494,VALID,355,VALID,0.380859,
2009-01-12, 02:13:04,VALID,1003.27,VALID,0,VALID,92.1187,VALID,0,VALID,24.1318,VALID,355,VALID,0.522266,
2009-01-12, 02:14:04,VALID,1003.29,VALID,0,VALID,91.9051,VALID,0,VALID,24.0539,VALID,355,VALID,0.596484,
2009-01-12, 02:15:04,VALID,1003.29,VALID,0,VALID,92.1264,VALID,0,VALID,24.015,VALID,355,VALID,0.361719,
2009-01-12, 02:16:04,VALID,1003.29,VALID,0,VALID,92.1111,VALID,0.100563,VALID,23.9548,VALID,355,VALID,0.398438,
2009-01-12, 02:17:04,VALID,1003.29,VALID,0,VALID,92.2713,VALID,0,VALID,23.9353,VALID,355,VALID,0.436328,
2009-01-12, 02:18:04,VALID,1003.31,VALID,0,VALID,92.4849,VALID,0,VALID,23.9177,VALID,355,VALID,0.372656,
2009-01-12, 02:19:04,VALID,1003.28,VALID,0,VALID,92.6451,VALID,0.100563,VALID,23.9159,VALID,355,VALID,0.351953,
2009-01-12, 02:20:04,VALID,1003.31,VALID,0,VALID,92.6528,VALID,0,VALID,23.8982,VALID,355,VALID,0.320313,
2009-01-12, 02:21:04,VALID,1003.27,VALID,0,VALID,92.6985,VALID,0,VALID,23.8982,VALID,355,VALID,0.328906,
2009-01-12, 02:22:04,VALID,1003.27,VALID,0,VALID,92.7672,VALID,0.100563,VALID,23.8787,VALID,355,VALID,0.348437,
2009-01-12, 02:23:04,VALID,1003.28,VALID,0,VALID,92.874,VALID,0,VALID,23.8575,VALID,355,VALID,0.285937,
2009-01-12, 02:24:04,VALID,1003.25,VALID,0,VALID,92.9884,VALID,0,VALID,23.8575,VALID,355,VALID,0.194531,
2009-01-12, 02:25:04,VALID,1003.27,VALID,0,VALID,93.0723,VALID,0,VALID,23.9,VALID,355,VALID,0.196484,
2009-01-12, 02:26:04,VALID,1003.29,VALID,0,VALID,93.1334,VALID,0,VALID,23.8787,VALID,355,VALID,0.169922,
2009-01-12, 02:27:04,VALID,1003.26,VALID,0,VALID,93.1334,VALID,0,VALID,23.8593,VALID,355,VALID,0.231641,
2009-01-12, 02:28:04,VALID,1003.26,VALID,0,VALID,93.0113,VALID,0,VALID,23.8416,VALID,355,VALID,0.220313,
2009-01-12, 02:29:04,VALID,1003.26,VALID,0,VALID,93.0189,VALID,0,VALID,23.8009,VALID,355,VALID,0.298828,
2009-01-12, 02:30:04,VALID,1003.28,VALID,0,VALID,93.2631,VALID,0,VALID,23.8221,VALID,355,VALID,0.300391,
2009-01-12, 02:31:04,VALID,1003.27,VALID,0,VALID,93.2707,VALID,0,VALID,23.8203,VALID,355,VALID,0.595312,
2009-01-12, 02:32:04,VALID,1003.26,VALID,0,VALID,93.1486,VALID,0,VALID,23.7814,VALID,355,VALID,0.600391,
2009-01-12, 02:33:04,VALID,1003.23,VALID,0,VALID,93.0952,VALID,0,VALID,23.7443,VALID,355,VALID,0.639453,
2009-01-12, 02:34:04,VALID,1003.24,VALID,0,VALID,93.1257,VALID,0,VALID,23.7248,VALID,358,VALID,0.551953,
2009-01-12, 02:35:04,VALID,1003.2,VALID,0,VALID,93.2936,VALID,0,VALID,23.6841,VALID,359,VALID,0.378516,
2009-01-12, 02:36:04,VALID,1003.21,VALID,0,VALID,93.347,VALID,0,VALID,23.6841,VALID,359,VALID,0.278125,
2009-01-12, 02:37:04,VALID,1003.2,VALID,0,VALID,93.4919,VALID,0,VALID,23.7035,VALID,359,VALID,0.0492188,
2009-01-12, 02:38:04,VALID,1003.21,VALID,0,VALID,93.6216,VALID,0,VALID,23.723,VALID,359,VALID,0.059375,
2009-01-12, 02:39:04,VALID,1003.19,VALID,0,VALID,93.7055,VALID,0,VALID,23.7425,VALID,359,VALID,0.473437,
2009-01-12, 02:40:04,VALID,1003.22,VALID,0,VALID,93.5835,VALID,0,VALID,23.7212,VALID,359,VALID,0.484766,
2009-01-12, 02:41:04,VALID,1003.19,VALID,0,VALID,93.5911,VALID,0.100563,VALID,23.7017,VALID,359,VALID,0.411328,
2009-01-12, 02:42:04,VALID,1003.22,VALID,0,VALID,93.5682,VALID,0,VALID,23.6823,VALID,359,VALID,0.635938,
2009-01-12, 02:43:04,VALID,1003.19,VALID,0,VALID,93.6292,VALID,0,VALID,23.6841,VALID,359,VALID,0.712109,
2009-01-12, 02:44:04,VALID,1003.18,VALID,0,VALID,93.7284,VALID,0,VALID,23.6823,VALID,359,VALID,0.548437,
2009-01-12, 02:45:04,VALID,1003.18,VALID,0,VALID,93.6445,VALID,0,VALID,23.6628,VALID,359,VALID,0.433594,
2009-01-12, 02:46:04,VALID,1003.17,VALID,0,VALID,93.7208,VALID,0,VALID,23.6646,VALID,359,VALID,0.422266,
2009-01-12, 02:47:04,VALID,1003.16,VALID,0,VALID,93.7818,VALID,0.100563,VALID,23.6434,VALID,359,VALID,0.355859,
2009-01-12, 02:48:04,VALID,1003.17,VALID,0,VALID,93.8047,VALID,0,VALID,23.6452,VALID,359,VALID,0.346875,
2009-01-12, 02:49:04,VALID,1003.15,VALID,0,VALID,93.8352,VALID,0,VALID,23.6452,VALID,359,VALID,0.329297,
2009-01-12, 02:50:04,VALID,1003.14,VALID,0,VALID,93.8886,VALID,0,VALID,23.6434,VALID,359,VALID,0.204688,
2009-01-12, 02:51:04,VALID,1003.15,VALID,0,VALID,93.9497,VALID,0,VALID,23.6434,VALID,359,VALID,0.320313,
2009-01-12, 02:52:04,VALID,1003.16,VALID,0,VALID,94.0031,VALID,0,VALID,23.6628,VALID,359,VALID,0.363281,
2009-01-12, 02:53:04,VALID,1003.16,VALID,0,VALID,94.1633,VALID,0.100563,VALID,23.7017,VALID,359,VALID,0.401953,
2009-01-12, 02:54:04,VALID,1003.16,VALID,0,VALID,94.1709,VALID,0.100563,VALID,23.7407,VALID,359,VALID,0.428516,
2009-01-12, 02:55:04,VALID,1003.19,VALID,0,VALID,94.1328,VALID,0,VALID,23.7407,VALID,359,VALID,0.318359,
2009-01-12, 02:56:04,VALID,1003.18,VALID,0,VALID,94.1633,VALID,0,VALID,23.7601,VALID,359,VALID,0.237109,
2009-01-12, 02:57:04,VALID,1003.17,VALID,0,VALID,94.2777,VALID,0,VALID,23.8185,VALID,359,VALID,0.235156,
2009-01-12, 02:58:04,VALID,1003.19,VALID,0,VALID,94.3158,VALID,0,VALID,23.8398,VALID,270,VALID,0.563281,
2009-01-12, 02:59:04,VALID,1003.18,VALID,0,VALID,94.3845,VALID,0,VALID,23.8964,VALID,271,VALID,0.164453,
2009-01-12, 03:00:04,VALID,1003.18,VALID,0,VALID,94.2014,VALID,0,VALID,23.9371,VALID,271,VALID,0.16875,
2009-01-12, 03:01:04,VALID,1003.19,VALID,0,VALID,94.0794,VALID,0.100563,VALID,23.9353,VALID,271,VALID,0.1875,
2009-01-12, 03:02:04,VALID,1003.19,VALID,0,VALID,94.0565,VALID,0,VALID,23.9566,VALID,271,VALID,0.163672,
2009-01-12, 03:03:04,VALID,1003.18,VALID,0,VALID,93.9649,VALID,0,VALID,23.9548,VALID,271,VALID,0.344922,
2009-01-12, 03:04:04,VALID,1003.18,VALID,0,VALID,93.8047,VALID,0,VALID,23.9566,VALID,271,VALID,0.434375,
2009-01-12, 03:05:04,VALID,1003.18,VALID,0,VALID,93.7437,VALID,0,VALID,23.9566,VALID,271,VALID,0.314063,
2009-01-12, 03:06:04,VALID,1003.11,VALID,0,VALID,93.8123,VALID,0,VALID,23.9761,VALID,271,VALID,0.228906,
2009-01-12, 03:07:04,VALID,1003.14,VALID,0,VALID,93.5453,VALID,0,VALID,23.9159,VALID,271,VALID,0.288672,
2009-01-12, 03:08:04,VALID,1003.11,VALID,0,VALID,93.8123,VALID,0,VALID,23.9159,VALID,271,VALID,0.454688,
2009-01-12, 03:09:04,VALID,1003.12,VALID,0,VALID,93.8276,VALID,0,VALID,23.9742,VALID,271,VALID,0.188672,
2009-01-12, 03:10:04,VALID,1003.1,VALID,0,VALID,93.5911,VALID,0,VALID,23.9761,VALID,271,VALID,0.376563,
2009-01-12, 03:11:04,VALID,1003.07,VALID,0,VALID,93.4538,VALID,0,VALID,23.9779,VALID,271,VALID,0.324219,
2009-01-12, 03:12:04,VALID,1003.08,VALID,0,VALID,93.4156,VALID,0,VALID,23.9584,VALID,271,VALID,0.433594,
2009-01-12, 03:13:04,VALID,1003.09,VALID,0,VALID,93.4156,VALID,0,VALID,23.9195,VALID,271,VALID,0.39375,
2009-01-12, 03:14:04,VALID,1003.12,VALID,0,VALID,93.3088,VALID,0,VALID,23.8593,VALID,271,VALID,0.492969,
2009-01-12, 03:15:04,VALID,1003.1,VALID,0,VALID,93.1944,VALID,0,VALID,23.7814,VALID,271,VALID,0.498047,
2009-01-12, 03:16:04,VALID,1003.11,VALID,0,VALID,93.2631,VALID,0,VALID,23.7832,VALID,271,VALID,0.414844,
2009-01-12, 03:17:04,VALID,1003.15,VALID,0,VALID,93.5148,VALID,0,VALID,23.7832,VALID,271,VALID,0.251172,
2009-01-12, 03:18:04,VALID,1003.15,VALID,0,VALID,93.5835,VALID,0,VALID,23.7619,VALID,271,VALID,0.227734,
2009-01-12, 03:19:04,VALID,1003.14,VALID,0,VALID,93.5835,VALID,0,VALID,23.7619,VALID,271,VALID,0.279297,
2009-01-12, 03:20:04,VALID,1003.13,VALID,0,VALID,93.7055,VALID,0,VALID,23.7619,VALID,271,VALID,0.326172,
2009-01-12, 03:21:04,VALID,1003.11,VALID,0,VALID,93.8657,VALID,0,VALID,23.7814,VALID,271,VALID,0.472656,
2009-01-12, 03:22:04,VALID,1003.1,VALID,0,VALID,93.9497,VALID,0,VALID,23.8203,VALID,348,VALID,0.630078,
2009-01-12, 03:23:04,VALID,1003.11,VALID,0,VALID,94.1175,VALID,0,VALID,23.8805,VALID,349,VALID,0.629687,
2009-01-12, 03:24:04,VALID,1003.11,VALID,0,VALID,94.209,VALID,0,VALID,23.9566,VALID,350,VALID,0.632422,
2009-01-12, 03:25:04,VALID,1003.08,VALID,0,VALID,94.2853,VALID,0,VALID,24.0539,VALID,351,VALID,0.434766,
2009-01-12, 03:26:04,VALID,1003.09,VALID,0,VALID,94.1556,VALID,0,VALID,24.1123,VALID,352,VALID,0.392578,
2009-01-12, 03:27:04,VALID,1003.03,VALID,0,VALID,93.8657,VALID,0.100563,VALID,24.13,VALID,347,VALID,0.314063,
2009-01-12, 03:28:04,VALID,1003.05,VALID,0,VALID,93.7284,VALID,0,VALID,24.1884,VALID,348,VALID,0.487109,
2009-01-12, 03:29:04,VALID,1003.03,VALID,0,VALID,93.6445,VALID,0,VALID,24.2468,VALID,348,VALID,0.559375,
2009-01-12, 03:30:04,VALID,1003.03,VALID,0,VALID,93.3622,VALID,0,VALID,24.307,VALID,348,VALID,0.523438,
2009-01-12, 03:31:04,VALID,1003.01,VALID,0,VALID,93.2097,VALID,0,VALID,24.3246,VALID,348,VALID,0.0871094,
2009-01-12, 03:32:04,VALID,1002.99,VALID,0,VALID,92.9808,VALID,0,VALID,24.3441,VALID,348,VALID,0.000390625,
2009-01-12, 03:33:04,VALID,1002.96,VALID,0,VALID,92.8969,VALID,0,VALID,24.3849,VALID,348,VALID,0.545703,
2009-01-12, 03:34:04,VALID,1002.95,VALID,0,VALID,92.8816,VALID,0,VALID,24.4238,VALID,349,VALID,0.542578,
2009-01-12, 03:35:04,VALID,1002.95,VALID,0,VALID,92.7748,VALID,0,VALID,24.5017,VALID,351,VALID,0.505859,
2009-01-12, 03:36:04,VALID,1002.93,VALID,0,VALID,92.5154,VALID,0,VALID,24.5388,VALID,5,VALID,0.755078,
2009-01-12, 03:37:04,VALID,1002.87,VALID,0,VALID,92.2637,VALID,0,VALID,24.6361,VALID,6,VALID,0.4125,
2009-01-12, 03:38:04,VALID,1002.85,VALID,0,VALID,91.9967,VALID,0,VALID,24.6945,VALID,343,VALID,0.964844,
2009-01-12, 03:39:04,VALID,1002.83,VALID,0,VALID,91.5923,VALID,0,VALID,24.7919,VALID,348,VALID,0.909375,
2009-01-12, 03:40:04,VALID,1002.79,VALID,0,VALID,91.2262,VALID,0,VALID,24.8697,VALID,331,VALID,0.401953,
2009-01-12, 03:41:04,VALID,1002.81,VALID,0,VALID,90.8981,VALID,0,VALID,24.9087,VALID,331,VALID,0,
2009-01-12, 03:42:04,VALID,1002.82,VALID,0,VALID,90.7303,VALID,0,VALID,24.9087,VALID,331,VALID,0.0953125,
2009-01-12, 03:43:04,VALID,1002.81,VALID,0,VALID,90.5548,VALID,0,VALID,24.9087,VALID,331,VALID,0.0789063,
2009-01-12, 03:44:04,VALID,1002.79,VALID,0,VALID,90.4327,VALID,0,VALID,24.9282,VALID,331,VALID,0,